TimeEST,TemperatureF,Dew PointF,Humidity,Sea Level PressureIn,VisibilityMPH,Wind Direction,Wind SpeedMPH,Gust SpeedMPH,PrecipitationIn,Events,Conditions,WindDirDegrees,DateUTC
12:51 AM,37.9,21.0,51,30.22,10.0,SW,5.8,-,N/A,,Overcast,220,2013-01-06 05:51:00
1:51 AM,37.0,21.0,52,30.22,10.0,SW,6.9,-,N/A,,Overcast,220,2013-01-06 06:51:00
2:51 AM,36.0,21.0,55,30.19,10.0,SSW,10.4,-,N/A,,Overcast,210,2013-01-06 07:51:00
3:51 AM,37.0,21.0,52,30.17,10.0,SW,6.9,-,N/A,,Overcast,220,2013-01-06 08:51:00
4:51 AM,35.1,27.0,72,30.14,6.0,SSW,10.4,-,0.00,Snow,Light Snow,210,2013-01-06 09:51:00
5:47 AM,35.6,28.4,75,30.13,7.0,SSW,8.1,-,0.00,,Overcast,210,2013-01-06 10:47:00
5:51 AM,35.1,28.0,76,30.13,8.0,SSW,8.1,-,0.00,,Overcast,210,2013-01-06 10:51:00
6:51 AM,35.1,28.9,78,30.12,8.0,SSW,9.2,-,N/A,,Overcast,210,2013-01-06 11:51:00
7:01 AM,35.6,30.2,81,30.13,8.0,SSW,8.1,-,N/A,,Overcast,210,2013-01-06 12:01:00
7:51 AM,36.0,30.9,82,30.12,7.0,SW,10.4,-,N/A,,Overcast,230,2013-01-06 12:51:00
8:51 AM,36.0,30.9,82,30.12,7.0,WSW,10.4,-,N/A,,Overcast,240,2013-01-06 13:51:00
9:51 AM,37.0,30.0,76,30.11,7.0,WSW,6.9,-,N/A,,Mostly Cloudy,240,2013-01-06 14:51:00
10:20 AM,39.2,28.4,65,30.10,9.0,West,8.1,-,N/A,,Mostly Cloudy,270,2013-01-06 15:20:00
10:51 AM,39.0,30.0,70,30.08,8.0,SW,8.1,-,N/A,,Scattered Clouds,230,2013-01-06 15:51:00
11:51 AM,41.0,28.4,61,30.04,8.0,SW,9.2,-,N/A,,Scattered Clouds,230,2013-01-06 16:51:00
12:51 PM,43.0,27.0,53,30.01,8.0,West,10.4,-,N/A,,Scattered Clouds,270,2013-01-06 17:51:00
1:51 PM,45.0,27.0,49,29.99,9.0,SW,6.9,-,N/A,,Scattered Clouds,230,2013-01-06 18:51:00
2:51 PM,46.0,27.0,47,29.97,10.0,SW,6.9,-,N/A,,Scattered Clouds,230,2013-01-06 19:51:00
3:51 PM,46.0,25.0,44,29.97,10.0,SW,6.9,-,N/A,,Partly Cloudy,230,2013-01-06 20:51:00
4:51 PM,46.0,23.0,40,29.98,10.0,WSW,11.5,20.7,N/A,,Scattered Clouds,250,2013-01-06 21:51:00
5:51 PM,45.0,24.1,44,30.00,10.0,West,13.8,-,N/A,,Mostly Cloudy,260,2013-01-06 22:51:00
6:51 PM,45.0,24.1,44,30.01,10.0,West,16.1,23.0,N/A,,Mostly Cloudy,270,2013-01-06 23:51:00
7:51 PM,44.1,24.1,45,30.01,10.0,West,13.8,-,N/A,,Overcast,260,2013-01-07 00:51:00
8:51 PM,44.1,25.0,47,30.01,10.0,West,11.5,20.7,N/A,,Overcast,280,2013-01-07 01:51:00
9:51 PM,44.1,26.1,49,30.02,10.0,WNW,12.7,20.7,N/A,,Overcast,290,2013-01-07 02:51:00
10:51 PM,43.0,26.1,51,30.03,10.0,WNW,10.4,21.9,N/A,,Scattered Clouds,300,2013-01-07 03:51:00
11:51 PM,43.0,27.0,53,30.04,10.0,West,10.4,-,N/A,,Mostly Cloudy,280,2013-01-07 04:51:00